Temperature
20 20 20 20 18 16 18 19 19 19 18 19 19 18 18 17 18 17 17 17 17 17 17 17 17 17 17 17 17 17 17 18 18 18 18 17 17 18 17 17 17 17 17 17 17 17 17 17 17
20 21 21 20 17 17 18 18 19 19 19 19 19 18 17 17 17 17 17 17 17 17 17 17 17 17 17 17 17 17 17 17 17 17 17 17 17 17 17 17 17 17 17 17 17 17 17 17 17
21 21 21 16 17 17 19 19 19 19 19 19 18 18 17 17 17 17 17 17 17 17 17 17 17 17 17 17 17 17 17 17 17 17 17 17 17 17 17 17 17 17 17 17 17 17 17 17 17
21 21 20 17 18 18 19 19 19 19 19 19 18 17 17 17 17 17 17 17 17 17 17 17 17 17 17 17 17 17 17 17 17 17 17 17 17 17 17 17 17 17 17 17 17 17 17 17 17
21 20 17 17 18 18 18 19 19 19 19 18 18 17 17 17 17 17 17 17 17 17 17 17 17 17 17 17 17 17 17 17 17 17 17 17 17 17 17 17 17 17 17 17 17 17 17 16 17
21 17 17 17 18 19 19 19 19 19 19 18 18 17 16 17 17 17 17 17 17 17 17 17 17 17 17 17 17 16 17 17 17 17 17 17 17 17 17 17 16 16 16 16 16 16 16 16 16
19 16 17 18 18 19 19 20 19 18 18 18 18 17 16 17 17 17 17 17 17 17 17 17 16 16 16 16 16 16 16 16 16 16 16 16 16 16 16 16 16 16 16 16 16 16 16 16 16
20 16 17 17 18 19 19 20 19 19 18 18 18 17 17 17 17 17 17 17 17 17 17 16 16 16 16 16 16 16 16 16 16 16 16 16 16 16 16 16 16 16 16 16 16 16 16 16 16
20 16 17 18 18 19 19 19 19 19 19 18 18 18 18 18 17 17 17 16 16 16 16 16 16 16 16 16 16 16 16 16 16 16 16 16 16 16 16 16 16 16 16 16 16 16 16 16 16
19 17 18 18 18 18 19 19 19 19 18 17 18 18 18 18 17 17 17 17 17 17 16 16 16 16 16 16 16 16 16 16 16 16 16 16 16 16 16 16 16 16 16 16 16 16 16 16 16
19 18 18 19 19 19 19 19 19 19 17 18 18 18 18 17 17 17 17 17 17 17 16 16 16 16 16 16 16 16 16 16 16 15 15 16 16 16 15 16 15 15 16 15 15 15 15 15 15
18 19 19 19 20 20 19 19 18 18 19 20 19 19 18 18 17 17 17 17 17 17 16 16 16 16 16 16 16 16 16 16 15 15 15 15 15 15 15 15 15 15 15 15 15 15 15 15 15
19 19 20 20 20 20 19 19 18 18 19 19 19 18 18 18 18 17 17 17 17 17 16 16 16 16 16 16 16 16 16 15 15 15 15 15 15 15 15 15 15 15 15 15 15 15 15 15 15
19 19 19 20 20 19 19 18 18 18 19 19 18 18 18 18 18 17 17 17 17 17 16 16 16 16 16 16 15 15 15 15 15 15 15 15 15 15 15 15 15 15 15 15 15 15 15 15 15
20 19 19 19 19 19 19 18 18 19 18 18 18 18 18 18 17 17 17 17 17 17 16 16 16 16 16 16 15 15 15 15 15 15 15 15 15 15 15 15 15 15 15 14 14 14 14 14 14
19 18 18 19 19 19 19 18 18 18 18 17 17 17 17 17 17 17 17 17 17 17 16 16 16 16 16 15 15 15 15 15 15 15 15 15 15 15 14 15 14 14 14 14 14 14 14 14 14
18 17 18 19 19 18 18 18 17 18 17 17 17 17 17 17 17 17 17 17 17 17 17 16 16 16 16 15 15 15 15 15 15 15 14 14 14 14 14 14 14 14 14 14 14 14 14 14 14
18 18 18 18 19 18 18 17 17 17 17 16 16 17 17 17 17 17 17 17 17 17 17 16 16 16 16 15 15 15 15 15 15 14 14 14 14 14 14 14 14 14 14 14 14 14 14 14 14
18 18 18 18 19 18 17 17 17 16 16 16 16 16 16 17 17 17 17 17 17 17 16 16 16 16 15 15 15 15 15 15 14 14 14 14 14 14 14 14 14 14 14 14 14 14 14 13 13
18 18 18 18 18 18 17 17 17 16 16 16 16 16 16 17 17 17 17 17 17 17 17 16 16 16 16 15 15 15 15 15 14 14 14 14 14 14 14 14 14 13 13 13 13 13 13 13 13
18 18 18 18 18 18 18 17 16 16 16 16 16 16 16 17 17 17 17 17 17 17 17 16 16 16 15 15 15 15 15 14 14 14 14 14 14 14 14 13 13 13 13 13 13 13 13 13 13
18 18 18 18 17 16 17 16 16 16 15 15 16 16 16 17 17 17 17 17 17 17 16 16 16 16 15 15 15 15 15 14 14 14 14 13 13 13 13 13 13 13 13 13 13 12 12 12 12
18 18 18 17 17 16 16 16 15 15 16 15 15 16 17 17 17 17 17 17 17 17 16 16 16 15 15 15 15 15 14 14 14 14 14 13 13 13 13 13 13 12 12 12 12 12 12 12 12
18 17 16 14 14 15 16 15 15 15 16 16 16 16 17 17 17 17 17 17 17 17 16 16 16 15 15 15 14 14 14 14 14 14 13 13 13 13 13 13 12 12 12 12 12 12 12 12 12
17 16 15 15 14 15 15 15 15 16 16 16 16 17 17 17 17 17 17 17 17 16 16 16 16 15 15 15 14 14 14 14 14 14 13 13 13 13 13 12 12 12 12 12 12 12 12 12 12
17 16 15 15 15 14 15 15 15 16 16 16 17 17 17 17 17 17 17 17 17 17 16 16 15 15 15 15 14 14 14 14 13 13 13 13 13 13 13 12 12 12 12 12 12 12 12 12 12
16 15 15 14 15 14 14 15 15 16 15 15 16 16 16 17 17 17 17 17 17 16 16 16 15 15 15 15 14 14 14 14 13 13 13 13 13 12 12 12 12 12 12 12 12 12 11 11 11
17 15 13 14 14 14 15 15 15 16 16 15 14 15 16 16 17 17 17 17 16 16 16 16 15 15 15 15 14 14 14 14 13 13 13 13 13 12 12 12 12 12 11 11 11 11 11 11 11
16 15 14 13 13 14 14 15 16 15 15 14 14 15 16 16 16 17 17 16 16 16 16 15 15 15 15 15 14 14 14 13 13 13 13 13 12 12 12 12 12 11 11 11 11 11 11 11 11
16 15 14 14 14 13 13 14 16 15 15 15 15 15 16 16 16 16 16 16 16 16 15 15 15 15 15 14 14 14 14 13 13 13 13 13 12 12 12 12 11 11 11 11 11 11 11 11 11
Wind_Speed
3 4 3 4 6 6 2 2 0 1 2 2 5 6 6 4 3 3 0 2 3 3 3 4 6 7 8 8 9 9 9 10 10 10 10 10 11 11 10 10 10 9 9 10 10 10 10 9 9
1 2 4 5 5 4 2 2 1 1 4 4 5 5 5 4 3 4 2 1 3 4 4 4 6 8 8 9 9 9 10 10 10 10 10 10 11 11 10 10 9 9 9 10 10 10 10 9 9
2 4 4 5 4 3 2 1 2 3 4 3 4 4 4 3 3 3 2 4 4 4 4 5 7 8 8 9 10 10 10 10 10 10 11 11 10 10 10 9 9 9 8 9 9 9 9 9 9
3 5 5 5 3 1 2 1 2 4 4 4 4 5 3 3 3 3 5 6 5 4 5 5 7 8 8 9 10 10 10 10 11 11 11 11 10 10 9 8 8 8 8 8 8 8 9 9 9
4 5 5 4 2 2 1 1 2 3 3 3 4 5 3 4 5 7 6 6 5 4 5 6 8 8 8 9 10 10 10 10 11 11 10 10 9 9 9 8 7 7 8 7 7 8 8 8 9
5 5 5 2 2 2 2 1 3 4 4 4 4 4 2 2 5 5 5 5 5 5 5 5 7 8 8 8 9 10 10 10 10 10 10 10 9 9 8 7 7 7 7 6 7 8 8 8 9
4 4 4 2 1 1 1 1 4 4 4 2 4 5 2 2 3 5 6 6 5 5 5 5 6 6 7 8 9 9 9 9 9 10 9 9 9 9 8 7 7 6 6 6 6 7 8 8 8
4 5 3 1 2 1 0 2 2 4 3 3 4 6 4 4 5 6 6 6 5 5 5 5 6 6 6 6 7 8 8 8 9 9 9 9 9 9 8 8 7 6 6 6 6 8 8 8 9
4 5 2 3 4 2 1 3 2 3 5 3 2 2 3 9 8 7 6 4 3 3 3 3 4 5 5 5 6 7 7 7 8 8 9 9 8 8 8 8 8 8 7 7 8 9 9 10 9
4 3 4 3 4 4 2 3 4 4 4 3 4 5 7 10 9 8 6 4 3 2 2 2 3 3 4 4 6 6 6 7 7 7 8 8 7 7 7 8 9 10 9 9 10 9 9 8 8
3 4 2 0 2 3 3 3 2 6 2 4 6 7 9 8 8 7 6 4 4 3 2 2 2 3 3 3 4 4 5 6 6 7 7 7 7 7 7 7 8 8 9 8 9 9 8 7 6
3 0 2 1 2 3 4 3 2 3 3 4 8 11 10 9 8 7 7 5 3 3 2 2 2 3 3 3 3 3 3 4 4 5 5 5 4 4 4 4 5 6 6 6 6 5 6 6 6
2 1 1 2 3 4 5 3 2 1 1 6 9 10 10 9 7 5 5 4 4 4 3 3 3 3 3 3 2 3 2 3 3 4 4 4 3 3 3 4 4 5 5 4 4 4 5 5 5
2 2 2 3 3 2 4 2 1 1 4 8 10 9 8 8 7 5 5 5 5 4 3 3 3 3 3 3 2 2 3 3 4 3 4 4 4 3 3 3 4 4 4 5 4 4 4 4 4
3 4 4 2 2 1 4 2 2 2 6 7 8 8 7 6 5 6 7 6 6 5 4 4 4 3 4 3 2 3 3 4 3 3 4 4 4 4 3 3 3 3 4 5 5 5 5 4 4
4 4 2 3 1 1 4 2 4 3 7 7 7 6 6 5 5 5 5 5 5 5 5 4 4 4 4 3 3 3 3 4 3 3 3 4 4 5 4 3 2 3 4 4 3 3 4 4 4
4 2 1 2 0 2 3 4 4 3 6 6 6 6 6 5 4 4 5 5 6 5 5 5 4 5 4 4 3 4 4 4 3 4 3 3 4 5 5 3 3 4 4 3 3 3 3 3 3
3 2 1 2 1 3 3 5 4 2 5 6 6 5 5 5 6 4 5 5 5 5 5 5 4 4 4 4 3 3 4 3 4 3 3 4 4 5 5 4 4 4 3 3 3 3 4 3 2
4 4 2 3 2 2 4 5 6 4 4 6 6 6 6 6 5 3 3 4 5 5 5 5 5 4 4 3 3 3 2 1 2 2 3 4 4 5 5 4 3 3 3 3 3 3 4 3 2
3 2 1 3 1 2 3 5 5 4 6 7 8 8 8 5 3 2 3 4 5 6 6 6 6 6 5 4 3 2 2 2 1 2 3 3 4 4 4 4 3 3 3 4 3 3 2 2 3
2 4 3 2 3 3 1 5 4 3 3 3 5 6 6 7 6 5 4 5 5 6 6 7 6 6 6 4 4 3 3 3 2 1 1 1 3 3 3 3 3 3 3 2 2 2 2 1 2
2 4 4 2 1 2 1 3 6 4 3 4 5 5 6 6 6 5 5 5 6 7 6 6 7 6 5 6 5 5 4 3 2 2 1 1 2 3 3 3 3 2 2 2 1 2 1 2 1
4 1 2 2 2 1 1 1 7 2 3 6 6 6 7 7 7 7 7 7 7 6 6 6 6 5 5 5 6 5 3 3 2 2 2 1 1 1 2 3 3 2 2 2 2 2 2 1 2
3 5 5 5 4 1 3 3 6 4 5 5 5 6 7 7 7 7 6 4 4 5 5 6 6 5 5 5 5 5 5 4 4 3 2 1 1 1 1 2 2 2 2 2 2 2 2 2 2
5 5 3 4 3 4 3 3 7 6 5 5 6 6 5 6 6 6 5 5 5 6 6 6 7 6 6 6 6 6 6 6 5 4 4 3 2 2 2 2 2 2 2 2 2 2 2 2 2
3 7 6 4 4 4 2 5 6 4 3 2 3 3 3 4 6 6 7 7 7 7 7 7 8 7 7 7 6 5 5 4 4 4 4 4 3 3 3 3 3 2 2 2 2 2 1 1 1
5 3 6 5 2 2 5 6 6 2 3 3 2 2 2 3 4 5 5 6 6 7 7 8 8 7 7 7 6 5 5 4 5 4 4 3 3 3 3 3 3 3 3 3 3 2 2 2 2
5 7 5 4 3 3 5 5 4 4 3 2 1 1 1 1 2 3 3 4 5 6 6 6 7 8 7 7 6 6 5 5 5 4 4 4 4 3 3 3 4 3 3 3 3 2 2 2 1
3 4 4 4 4 4 3 6 5 5 4 3 3 2 2 2 2 2 2 2 3 3 4 5 5 6 6 6 6 5 5 5 4 4 5 5 4 4 4 4 4 4 4 4 4 3 3 3 2
4 5 6 4 3 4 3 6 3 3 3 3 2 2 1 2 1 1 2 2 2 3 3 5 5 5 6 6 5 5 5 4 5 5 5 4 4 4 5 4 4 4 4 4 5 5 4 4 3
Wind_Direction
13 69 77 57 55 54 48 339 147 72 63 54 72 87 97 88 105 131 102 99 107 113 119 120 109 101 97 91 87 85 87 87 88 91 93 96 96 96 98 100 100 99 98 96 96 94 91 88 88
64 79 58 60 81 76 342 309 88 137 141 126 76 76 78 71 73 104 107 111 106 108 107 114 109 99 95 91 88 86 86 87 87 90 93 94 94 95 95 94 95 96 97 96 95 93 90 87 87
88 55 76 69 89 138 166 208 125 94 112 107 80 59 77 90 112 137 160 130 99 87 91 106 104 99 95 95 92 88 85 83 86 89 90 90 92 94 93 91 90 91 94 95 92 91 89 88 87
78 48 56 68 74 216 192 172 138 116 91 63 97 76 62 48 137 143 131 118 100 81 81 100 101 99 95 95 93 90 87 84 84 87 89 89 88 89 89 88 88 88 91 97 97 95 90 88 89
60 72 64 54 12 341 353 143 119 101 92 71 94 94 56 8 91 114 120 113 108 90 81 94 101 97 94 94 93 91 88 85 82 83 84 86 87 86 84 84 83 82 87 93 97 94 88 86 85
56 66 84 90 350 350 358 47 113 94 95 94 95 101 73 65 108 122 115 107 104 100 87 90 99 98 97 98 96 91 86 85 82 81 79 80 79 79 81 79 75 75 77 83 94 94 86 83 81
99 91 113 129 80 10 31 85 110 112 104 123 124 109 114 144 136 121 105 96 90 85 80 71 78 86 93 95 95 92 88 84 83 79 77 75 72 70 69 68 70 73 74 74 83 89 87 84 82
116 99 88 117 141 239 317 91 91 102 109 108 114 132 172 182 135 104 89 81 82 79 74 67 68 69 70 77 86 88 84 80 78 74 70 65 60 56 55 54 56 60 66 67 72 81 78 80 78
88 80 132 189 175 195 149 104 74 73 94 76 73 132 160 134 122 105 89 72 78 88 74 72 70 69 71 70 71 74 75 70 67 62 61 55 46 43 41 46 51 53 59 63 71 76 75 72 70
84 120 202 207 180 162 139 122 129 93 78 69 61 66 109 127 134 134 137 140 142 134 105 91 91 83 76 75 64 61 62 60 60 58 55 53 48 43 42 41 46 49 56 59 65 70 66 65 64
106 155 193 202 159 137 123 104 109 125 146 191 169 149 138 137 143 153 162 163 170 164 135 120 115 100 87 73 69 62 62 59 58 57 54 52 48 43 40 38 36 39 47 48 48 51 52 58 62
107 171 164 154 125 122 129 125 110 147 210 187 163 151 148 151 163 172 175 171 158 149 155 137 121 109 104 98 84 78 72 65 58 54 56 56 50 40 37 38 36 43 47 49 48 51 49 53 59
101 42 54 110 100 117 109 106 146 232 177 118 130 139 156 164 172 175 166 159 153 162 168 153 137 131 121 102 87 81 78 79 74 65 58 66 68 50 40 39 42 44 50 53 52 53 48 44 51
138 92 50 66 81 106 117 90 111 236 120 123 138 157 171 176 173 161 162 165 172 174 171 155 146 136 124 115 102 91 87 87 84 70 60 69 81 79 65 52 46 40 46 55 59 58 54 46 50
93 69 32 35 85 138 114 21 238 189 134 143 160 169 176 188 180 181 182 180 179 175 171 160 152 129 126 125 113 97 94 92 79 70 64 70 83 87 82 68 51 37 47 59 63 56 56 50 44
66 68 31 303 122 142 122 256 257 157 150 166 180 183 185 197 198 196 181 174 174 169 169 170 164 143 140 129 114 96 95 93 82 80 75 76 85 89 87 79 56 48 56 59 61 52 53 45 39
46 96 221 301 245 135 142 241 263 162 166 186 195 194 192 200 211 205 187 178 172 173 169 163 157 151 149 136 113 94 90 83 83 86 80 82 88 90 92 87 65 62 60 52 61 53 59 54 41
192 179 204 256 280 138 184 246 265 203 186 196 197 198 194 203 220 207 187 181 172 168 162 156 148 146 136 122 104 85 78 69 69 76 85 92 89 93 93 86 73 72 70 57 58 65 55 59 49
157 155 197 254 244 152 217 250 261 212 204 212 205 199 201 216 222 190 171 168 164 164 160 159 154 152 139 130 130 121 115 95 70 65 83 93 97 100 97 87 81 75 78 74 73 74 65 46 26
144 148 241 296 316 176 233 270 267 214 212 213 206 204 204 210 207 187 165 166 174 178 175 168 169 164 161 159 146 136 126 115 106 65 69 89 104 109 106 106 98 91 87 74 63 67 77 43 29
161 177 206 240 349 28 12 317 297 276 237 219 207 202 199 197 200 197 188 187 180 179 180 178 176 170 166 149 116 94 77 67 66 61 53 55 105 108 108 117 111 109 104 102 86 83 99 99 29
226 215 191 182 85 308 38 293 288 276 279 244 224 206 206 205 200 197 196 196 193 193 180 172 169 167 164 152 148 144 147 160 192 181 175 131 109 114 123 124 118 115 109 111 100 93 97 112 80
205 160 135 134 148 345 356 210 286 309 270 256 234 215 211 202 196 198 202 203 199 185 173 170 159 160 158 158 162 157 155 165 154 136 146 147 109 112 130 133 128 132 129 135 112 95 93 103 121
137 77 63 52 76 307 246 194 279 249 232 250 234 222 213 202 198 202 203 188 179 168 167 165 163 167 164 164 168 169 168 165 154 158 170 179 168 175 157 144 142 149 143 151 150 136 123 110 106
95 93 37 5 9 256 256 203 252 259 241 229 230 228 214 199 192 192 186 181 180 176 175 172 172 178 176 173 179 186 185 177 177 181 187 185 188 208 212 177 169 167 171 161 142 143 142 139 135
161 143 158 196 225 279 294 236 256 274 286 250 211 191 180 188 189 195 195 191 191 187 181 177 182 187 184 184 191 195 186 181 192 190 186 192 201 210 203 185 178 184 172 160 145 145 165 147 157
141 165 162 141 172 266 281 287 301 334 16 38 62 95 162 192 194 204 202 193 190 188 189 187 183 189 192 195 193 194 194 190 195 196 193 197 205 205 188 184 187 186 176 167 156 160 183 162 175
142 144 108 126 159 255 292 279 258 280 295 323 36 204 228 200 198 210 209 203 199 195 192 188 191 193 195 193 197 200 203 202 198 191 197 202 209 205 186 190 192 190 186 176 169 172 187 166 191
116 113 115 124 155 166 260 273 230 221 229 228 234 230 213 197 197 198 196 186 178 172 178 185 193 193 191 191 195 198 203 201 195 200 208 206 204 200 198 198 194 194 196 190 181 193 182 185 208
173 168 148 157 210 181 194 266 279 220 231 217 230 244 197 177 171 152 153 141 148 170 186 192 193 195 200 193 191 203 201 196 201 214 219 205 202 204 204 200 199 205 205 196 195 205 198 198 210
Height
1486 1486 1487 1488 1492 1504 1508 1505 1501 1501 1501 1501 1500 1501 1504 1507 1510 1516 1513 1511 1512 1513 1513 1513 1513 1514 1514 1514 1514 1514 1514 1514 1514 1514 1514 1514 1515 1515 1516 1516 1517 1517 1518 1518 1519 1520 1520 1521 1521
1487 1487 1489 1490 1501 1515 1512 1503 1501 1500 1501 1501 1502 1504 1505 1507 1509 1511 1511 1512 1513 1514 1514 1514 1514 1514 1515 1515 1515 1515 1515 1515 1515 1515 1516 1516 1516 1517 1517 1517 1518 1519 1519 1520 1520 1521 1521 1521 1522
1488 1489 1490 1494 1505 1512 1508 1502 1501 1500 1501 1502 1504 1505 1507 1509 1510 1511 1512 1513 1514 1514 1515 1515 1516 1516 1516 1516 1516 1516 1517 1517 1517 1517 1517 1517 1518 1518 1519 1519 1520 1520 1520 1521 1521 1522 1522 1522 1523
1489 1491 1493 1501 1507 1505 1502 1501 1500 1501 1502 1503 1504 1507 1509 1511 1511 1512 1513 1514 1515 1515 1516 1516 1517 1517 1517 1517 1518 1518 1518 1518 1518 1518 1519 1519 1519 1520 1520 1520 1521 1521 1521 1522 1522 1523 1523 1523 1524
1490 1491 1500 1508 1507 1503 1501 1500 1501 1501 1502 1504 1505 1508 1510 1512 1512 1513 1514 1515 1516 1517 1517 1517 1518 1518 1518 1519 1519 1519 1520 1520 1520 1520 1520 1521 1521 1521 1521 1522 1522 1522 1522 1523 1523 1523 1524 1524 1525
1491 1494 1508 1513 1508 1503 1501 1501 1501 1502 1504 1505 1506 1509 1512 1513 1513 1514 1515 1516 1517 1518 1518 1519 1519 1520 1520 1520 1521 1521 1521 1521 1522 1522 1522 1522 1522 1523 1523 1523 1523 1523 1523 1523 1523 1524 1525 1525 1525
1493 1500 1508 1509 1509 1505 1502 1501 1502 1503 1505 1506 1507 1509 1512 1513 1514 1515 1516 1517 1518 1519 1520 1520 1520 1521 1522 1522 1522 1523 1523 1523 1523 1523 1523 1524 1524 1524 1524 1524 1524 1524 1524 1524 1524 1524 1525 1526 1526
1493 1500 1507 1509 1509 1506 1502 1502 1503 1504 1506 1507 1508 1509 1511 1513 1514 1516 1517 1518 1519 1520 1521 1521 1522 1522 1523 1523 1524 1524 1524 1525 1525 1525 1525 1525 1525 1525 1525 1525 1525 1525 1525 1525 1525 1524 1525 1526 1527
1494 1504 1510 1507 1507 1504 1502 1503 1504 1505 1506 1508 1508 1510 1511 1513 1514 1516 1518 1519 1520 1521 1521 1522 1523 1524 1524 1524 1525 1525 1526 1526 1526 1526 1526 1526 1526 1526 1527 1527 1526 1526 1525 1526 1526 1526 1526 1527 1527
1495 1506 1504 1501 1501 1501 1502 1502 1504 1506 1507 1509 1509 1510 1512 1513 1515 1516 1517 1519 1520 1521 1522 1523 1524 1525 1525 1526 1526 1526 1527 1527 1527 1528 1528 1528 1528 1528 1528 1528 1527 1527 1526 1527 1527 1527 1528 1528 1529
1496 1501 1499 1499 1499 1500 1502 1503 1505 1506 1508 1508 1509 1510 1512 1513 1515 1516 1518 1519 1521 1522 1523 1524 1525 1526 1526 1527 1527 1527 1528 1528 1529 1529 1529 1529 1529 1529 1529 1529 1529 1528 1528 1528 1527 1528 1529 1529 1530
1497 1498 1498 1499 1499 1500 1502 1504 1506 1506 1507 1507 1508 1509 1511 1513 1515 1516 1518 1520 1521 1522 1524 1525 1526 1527 1527 1528 1528 1529 1529 1530 1530 1530 1530 1530 1530 1530 1530 1530 1530 1530 1530 1529 1529 1530 1530 1530 1531
1498 1499 1499 1499 1499 1501 1502 1504 1505 1506 1506 1507 1508 1510 1512 1513 1515 1517 1519 1520 1522 1523 1524 1525 1526 1527 1528 1529 1529 1530 1530 1531 1531 1531 1531 1532 1532 1531 1531 1531 1531 1531 1531 1531 1531 1531 1531 1531 1531
1498 1498 1499 1500 1500 1502 1503 1505 1506 1506 1507 1507 1509 1510 1512 1514 1516 1517 1519 1520 1522 1523 1524 1525 1526 1527 1528 1529 1530 1531 1531 1532 1532 1532 1532 1533 1533 1532 1532 1532 1532 1532 1532 1532 1532 1532 1532 1532 1532
1498 1500 1502 1501 1502 1503 1504 1507 1506 1506 1507 1508 1509 1511 1512 1514 1516 1517 1518 1520 1521 1523 1524 1525 1527 1528 1529 1529 1530 1531 1532 1532 1533 1533 1533 1533 1533 1533 1533 1533 1533 1533 1533 1533 1533 1533 1533 1533 1533
1500 1505 1510 1504 1503 1503 1508 1513 1506 1506 1507 1508 1509 1510 1512 1514 1515 1517 1518 1520 1521 1523 1524 1525 1526 1527 1528 1530 1531 1531 1532 1532 1533 1533 1534 1534 1534 1534 1534 1534 1534 1534 1534 1533 1533 1533 1533 1533 1533
1507 1514 1513 1508 1503 1504 1507 1511 1505 1505 1506 1507 1508 1509 1511 1513 1514 1516 1517 1519 1520 1522 1523 1524 1526 1527 1528 1530 1531 1531 1532 1532 1533 1534 1534 1534 1534 1534 1534 1534 1534 1534 1534 1533 1533 1533 1533 1533 1533
1513 1513 1512 1510 1504 1505 1508 1509 1505 1505 1505 1506 1507 1508 1509 1511 1512 1514 1516 1518 1519 1521 1522 1524 1525 1527 1528 1529 1530 1531 1532 1532 1533 1533 1534 1534 1534 1534 1534 1534 1533 1533 1533 1533 1533 1533 1533 1533 1533
1505 1509 1512 1508 1503 1506 1508 1508 1504 1503 1504 1505 1505 1506 1508 1509 1511 1513 1515 1517 1518 1519 1521 1522 1524 1525 1527 1528 1529 1530 1530 1531 1532 1533 1533 1533 1533 1533 1533 1533 1533 1533 1533 1533 1533 1533 1533 1533 1533
1505 1510 1511 1508 1503 1505 1508 1507 1503 1502 1502 1502 1502 1504 1505 1507 1509 1511 1513 1514 1516 1517 1519 1521 1522 1524 1526 1527 1528 1529 1530 1531 1532 1532 1532 1533 1533 1533 1533 1533 1533 1533 1533 1533 1533 1533 1533 1532 1533
1506 1509 1509 1510 1506 1506 1508 1510 1505 1501 1500 1500 1501 1502 1503 1505 1507 1509 1510 1512 1514 1515 1517 1519 1521 1523 1525 1526 1528 1529 1529 1530 1531 1531 1532 1532 1532 1532 1532 1532 1532 1532 1532 1532 1533 1533 1532 1532 1533
1508 1502 1504 1507 1513 1519 1514 1524 1508 1502 1500 1499 1499 1500 1501 1503 1505 1507 1508 1510 1511 1513 1515 1517 1519 1521 1523 1525 1526 1527 1528 1529 1530 1530 1531 1532 1532 1532 1532 1532 1532 1532 1532 1532 1532 1532 1532 1532 1532
1502 1500 1503 1507 1512 1519 1518 1523 1514 1504 1502 1498 1496 1497 1498 1499 1502 1504 1505 1507 1509 1512 1514 1516 1518 1520 1522 1523 1525 1526 1527 1528 1529 1529 1530 1531 1531 1531 1531 1531 1531 1531 1531 1531 1531 1531 1531 1531 1531
1498 1503 1508 1514 1519 1528 1519 1523 1518 1506 1499 1495 1493 1494 1495 1496 1499 1501 1503 1506 1508 1510 1512 1514 1516 1518 1520 1522 1523 1524 1525 1526 1527 1528 1529 1529 1530 1530 1530 1530 1531 1531 1531 1530 1530 1530 1530 1530 1530
1500 1513 1527 1529 1534 1530 1517 1519 1514 1497 1493 1492 1491 1491 1492 1494 1496 1498 1501 1503 1505 1508 1510 1512 1514 1516 1518 1519 1521 1522 1523 1524 1525 1526 1527 1527 1528 1528 1529 1529 1530 1530 1530 1529 1529 1529 1529 1529 1529
1502 1509 1527 1534 1536 1530 1519 1519 1505 1493 1490 1489 1489 1490 1491 1492 1494 1496 1498 1501 1503 1505 1507 1509 1511 1513 1515 1517 1519 1520 1521 1522 1523 1524 1525 1525 1526 1527 1527 1528 1528 1528 1528 1528 1528 1528 1528 1528 1528
1503 1508 1509 1522 1525 1530 1523 1513 1500 1492 1490 1489 1489 1489 1490 1491 1493 1495 1497 1499 1501 1503 1505 1507 1509 1511 1513 1515 1516 1518 1519 1520 1521 1522 1523 1523 1524 1524 1525 1525 1526 1526 1526 1526 1526 1526 1526 1527 1527
1496 1503 1514 1522 1530 1533 1524 1517 1510 1496 1493 1491 1490 1490 1490 1491 1492 1494 1495 1497 1499 1501 1503 1505 1507 1508 1510 1512 1514 1515 1516 1518 1518 1519 1520 1520 1521 1522 1522 1523 1523 1523 1524 1524 1524 1524 1524 1524 1524
1501 1505 1510 1519 1522 1531 1531 1519 1496 1493 1491 1490 1489 1489 1489 1490 1491 1493 1494 1495 1497 1499 1501 1502 1504 1506 1508 1509 1511 1513 1514 1515 1516 1517 1517 1518 1518 1519 1519 1520 1520 1520 1521 1521 1521 1521 1522 1522 1522
1494 1499 1507 1516 1521 1523 1526 1516 1490 1489 1488 1488 1488 1489 1489 1490 1491 1492 1493 1494 1495 1497 1498 1499 1501 1502 1504 1506 1508 1510 1511 1512 1513 1513 1514 1515 1515 1516 1516 1517 1517 1517 1518 1518 1518 1518 1519 1519 1519